Regional Weather Roundup
Issued by NWS Cleveland, OH

Home | Current Version | Previous Version | Graphics & Text | Print | Product List | Glossary On
Versions: 1 2 3 4 5 6 7 8 9 10 11 12 13 14 15 16 17 18 19 20 21 22 23 24 25 26 27 28 29 30 31 32 33 34 35 36 37 38 39 40 41 42 43 44 45 46 47 48 49 50
000
ASUS41 KCLE 251600
RWRCLE
OHIO REGIONAL WEATHER ROUNDUP
NATIONAL WEATHER SERVICE WILMINGTON, OH
1200 PM EDT TUE APR 25 2017

NOTE: "FAIR" INDICATES FEW OR NO CLOUDS BELOW 12,000 FEET WITH NO
SIGNIFICANT WEATHER AND/OR OBSTRUCTIONS TO VISIBILITY.

OHZ001>008-015>018-024>027-034-035-043-044-251700-
   NORTHWEST OHIO

CITY           SKY/WX    TMP DP  RH WIND       PRES   REMARKS
DEFIANCE       PTSUNNY   62  51  67 VRB5      29.82F
FINDLAY        FAIR      67  51  56 SE14      29.82F
TOLEDO EXPRESS CLOUDY    61  50  67 SE8       29.84F
TOLEDO EXEC    PTSUNNY   64  53  67 SE7       29.84F
LIMA           PTSUNNY   67  52  58 VRB7G16   29.81F
$$

OHZ009>014-019>023-028>033-038-089-251700-
   NORTHEAST OHIO

CITY           SKY/WX    TMP DP  RH WIND       PRES   REMARKS
CLE-HOPKINS    PTSUNNY   65  51  60 SE9       29.88F
CLE-LAKEFRONT  PTSUNNY   63  53  70 SE10      29.86F
CUY CO. ARPT   PTSUNNY   61  54  77 SE12      29.88F
LORAIN-ELYRIA  CLOUDY    64  51  62 S13       29.86F
ASHTABULA      PTSUNNY   58  52  80 SE9       29.90F
AKRON-CANTON   PTSUNNY   63  53  70 SE12      29.88F
WOOSTER        NOT AVBL
MANSFIELD      CLOUDY    66  52  60 E9        29.85F
YOUNGSTOWN     CLOUDY    62  54  74 E14       29.89F
$$

OHZ042-051>053-060>062-070>072-077>081-251700-
  SOUTHWEST OHIO

CITY           SKY/WX    TMP DP  RH WIND       PRES   REMARKS
CINC-COVINGTON PTSUNNY   67  55  65 SE7       29.79F
CINC-LUNKEN    FAIR      70  59  68 CALM      29.79F
HAMILTON       FAIR      68  55  63 S6        29.81F
DAYTON         NOT AVBL
WRIGHT-PAT AFB FAIR      68  54  59 SE7       29.80F
DAYTON GENERAL FAIR      67  54  63 SE9       29.79F
WILMINGTON     CLOUDY    66  55  67 SE7       29.81F
$$

OHZ036-037-039>041-045>050-054>059-063>069-073>076-082>088-251700-
  CENTRAL AND SOUTHEAST OHIO

CITY           SKY/WX    TMP DP  RH WIND       PRES   REMARKS
COLUMBUS       FAIR      68  53  58 VRB5      29.82F
OSU AIRPORT    FAIR      67  53  61 SE6       29.82F
BOLTON FIELD   MOSUNNY   66  54  63 SE6       29.84S
RICKENBACK AFB NOT AVBL
NEWARK         FAIR      69  51  52 SE9       29.82F
MARION         FAIR      67  51  56 SE13      29.84F
LANCASTER      FAIR      69  53  56 VRB5      29.82F
ZANESVILLE     PTSUNNY   65  52  62 E8        29.84F
NEW PHILLY     FAIR      64  55  72 SE6       29.87F
$$



USA.gov is the U.S. government's official web portal to all federal, state and local government web resources and services.